Tracking 28522 objects as of 28-Feb-2024
HD Live streaming from Space Station
objects crossing your sky now

TITAN 3C TRANSTAGE R/B

Track TITAN 3C TRANSTAGE R/B now!


NORAD ID: 3956
Int'l Code: 1969-046F
Perigee: 6,691.4 km
Apogee: 121,933.4 km
Inclination: 15.5 °
Period: 3,117.0 minutes
Semi major axis: 70683 km
RCS: 6.4225 m2 (large)
Launch date: May 23, 1969
Source: United States (US)
Launch site: AIR FORCE EASTERN TEST RANGE (AFETR)

Note: This is a ROCKET BODY
Your satellite tracking list
Your tracking list is empty




NASA's NSSDC Master Catalog

Two Line Element Set (TLE):
1 03956U 69046F   24060.46877036 -.00000365  00000-0  00000-0 0  9996
2 03956  15.5297  13.4781 8151983 272.2037   1.0902  0.46198359 17304
Source of the keplerian elements: AFSPC